Ames, IA

5:06 AM CDT on July 24, 2017 (GMT -0500)
Ames Municipal

Weather History for KAMW - December, 2011

Change the Weather History Date:

Thursday, December 22, 2011

  Actual Average Record
Temperature  
Mean Temperature 23 °F 21 °F  
Max Temperature 32 °F 30 °F 45 °F (2001)
Min Temperature 13 °F 13 °F -14 °F (2008)
Degree Days  
Heating Degree Days 42 44  
Month to date heating degree days 796 899  
Since 1 July heating degree days 2117 2353  
Cooling Degree Days 0 0  
Month to date cooling degree days 0 0  
Year to date cooling degree days 973 752  
Moisture  
Dew Point 22 °F    
Average Humidity 80    
Maximum Humidity 92    
Minimum Humidity 68    
Precipitation  
Precipitation T in 0.03 in 0.37 in (2014)
Month to date precipitation 1.79 0.88  
Year to date precipitation 31.05  
Sea Level Pressure  
Sea Level Pressure 30.20 in    
Wind  
Wind Speed 13 mph (NNW)    
Max Wind Speed 23 mph    
Max Gust Speed 29 mph    
Visibility 8 miles    
Events Snow    
T = Trace of Precipitation, MM = Missing Value Source: NWS Daily Summary

Daily Weather History Graph

Daily Weather History Graph

Search for Another Location

Airport or City:

Trip Planner

Search our weather history database for the weather conditions in past years. The results will help you decide how hot, cold, wet, or windy it might be!

Date:

Astronomy

Dec. 22, 2011 Rise Set
Actual Time 7:39 AM CST 4:46 PM CST
Civil Twilight 7:07 AM CST 5:18 PM CST
Nautical Twilight 6:32 AM CST 5:53 PM CST
Astronomical Twilight 5:58 AM CST 6:27 PM CST
Moon 5:23 AM CST (12/22) 2:57 PM CST (12/22)
Length of Visible Light 10h 10m
Length of Day
9h 07m
Waning Crescent, 5% of the Moon is Illuminated
Dec 22
Waning Crescent
Dec 24
New
Jan 1
First Quarter
Jan 9
Full
Jan 16
Last Quarter

Hourly Weather History & Observations

Time (CST) Temp. Windchill Dew Point Humidity Pressure Visibility Wind Dir Wind Speed Gust Speed Precip Events Conditions
12:43 AM 32.0 °F 24.2 °F 26.6 °F 80% 30.01 in 10.0 mi North 9.2 mph - N/A   Overcast
12:53 AM 32.0 °F 24.2 °F 27.0 °F 82% 30.02 in 10.0 mi North 9.2 mph - N/A   Overcast
1:06 AM 32.0 °F 24.2 °F 26.6 °F 80% 30.01 in 9.0 mi North 9.2 mph - N/A   Overcast
1:23 AM 30.2 °F 19.8 °F 28.4 °F 93% 30.02 in 2.0 mi North 13.8 mph - 0.00 in Snow Light Snow
1:25 AM 30.2 °F 20.8 °F 28.4 °F 93% 30.02 in 1.8 mi North 11.5 mph - 0.00 in Snow Light Snow
1:50 AM 30.2 °F 20.2 °F 28.4 °F 93% 30.03 in 2.0 mi North 12.7 mph - 0.00 in Snow Light Snow
1:53 AM 30.9 °F 21.7 °F 28.9 °F 92% 30.04 in 2.0 mi North 11.5 mph - 0.00 in Snow Light Snow
2:05 AM 30.2 °F 20.2 °F 28.4 °F 93% 30.04 in 3.0 mi North 12.7 mph - 0.00 in Snow Light Snow
2:34 AM 30.2 °F 19.8 °F 28.4 °F 93% 30.05 in 2.0 mi North 13.8 mph - 0.00 in Snow Light Snow
2:53 AM 30.9 °F 20.7 °F 28.9 °F 92% 30.07 in 2.0 mi North 13.8 mph - 0.00 in Snow Light Snow
3:33 AM 30.2 °F 19.3 °F 28.4 °F 93% 30.08 in 3.0 mi North 15.0 mph - 0.00 in Snow Light Snow
3:43 AM 30.2 °F 19.3 °F 28.4 °F 93% 30.08 in 6.0 mi North 15.0 mph - 0.00 in Snow Light Snow
3:53 AM 30.0 °F 19.1 °F 28.0 °F 92% 30.10 in 9.0 mi NNW 15.0 mph - 0.00 in   Overcast
4:53 AM 30.0 °F 19.5 °F 26.1 °F 85% 30.14 in 10.0 mi North 13.8 mph - N/A   Overcast
6:53 AM 28.0 °F 15.7 °F 23.0 °F 81% 30.17 in 10.0 mi North 17.3 mph 25.3 mph N/A   Clear
9:53 AM 24.1 °F 12.0 °F 18.0 °F 77% 30.30 in 10.0 mi North 13.8 mph - N/A   Clear
10:53 AM 27.0 °F 14.7 °F 19.9 °F 75% 30.30 in 10.0 mi NNW 16.1 mph - N/A   Clear
11:53 AM 27.0 °F 13.2 °F 19.9 °F 75% 30.31 in 10.0 mi NNW 20.7 mph 25.3 mph N/A   Clear
12:30 PM 26.6 °F 13.8 °F 19.4 °F 74% 30.27 in 10.0 mi North 17.3 mph 25.3 mph N/A   Mostly Cloudy
12:53 PM 27.0 °F 13.2 °F 19.9 °F 75% 30.30 in 10.0 mi North 20.7 mph 25.3 mph N/A   Overcast
1:25 PM 26.6 °F 14.7 °F 19.4 °F 74% 30.27 in 10.0 mi North 15.0 mph 26.5 mph N/A   Scattered Clouds
1:33 PM 28.4 °F 17.5 °F 19.4 °F 69% 30.28 in 10.0 mi North 13.8 mph 21.9 mph N/A   Mostly Cloudy
2:53 PM 27.0 °F 14.7 °F 18.0 °F 69% 30.31 in 10.0 mi NNW 16.1 mph - N/A   Mostly Cloudy
3:42 PM 26.6 °F 13.8 °F 17.6 °F 69% 30.30 in 10.0 mi North 17.3 mph - N/A   Scattered Clouds
3:53 PM 26.1 °F 13.6 °F 17.1 °F 69% 30.34 in 10.0 mi North 16.1 mph - N/A   Mostly Cloudy
4:00 PM 26.6 °F 14.3 °F 17.6 °F 69% 30.31 in 10.0 mi NNW 16.1 mph - N/A   Scattered Clouds
4:09 PM 26.6 °F 14.3 °F 17.6 °F 69% 30.31 in 10.0 mi North 16.1 mph - N/A   Mostly Cloudy
4:22 PM 24.8 °F 12.4 °F 15.8 °F 69% 30.31 in 10.0 mi North 15.0 mph - N/A   Scattered Clouds
4:53 PM 24.1 °F 12.5 °F 16.0 °F 71% 30.35 in 10.0 mi North 12.7 mph - N/A   Clear
9:53 PM 16.0 °F 7.4 °F 10.9 °F 81% 30.41 in 10.0 mi NW 5.8 mph - N/A   Clear
10:53 PM 12.9 °F - 10.0 °F 88% 30.42 in 10.0 mi Calm Calm - N/A   Clear
11:53 PM 12.9 °F 5.2 °F 9.0 °F 84% 30.43 in 10.0 mi West 4.6 mph - N/A   Clear